CZ-6A DEB

Satellite information

Favourite Embed

Satellite Type and Status

DEBRISIN ORBIT

Key statistics

Satellite CZ-6A DEB at a glance.

Uptime

969

Days in orbit

Revolutions

≈ 14.7

Per day

Orbit

SSO

Sun Synchronous Orbit

Inclination

99.1

Latest

Satellite identification and parameters

Extended collection of information and parameters for CZ-6A DEB.

Object identification

Identified? True

Debris? True

Object name: CZ-6A DEB

International designator: 2022-151SB

Object number (NORAD): 54938

Object ID (CCSDS): 54938

Country: PEOPLES REPUBLIC OF CHINA (PRC)

Current information (Y/N): Y

RCS size: SMALL

Orbital parameters

Period: 97.841 minutes

Inclination: 99.1274 deg

SMA: 7033.538 km

Apoapsis: 717.638 km

Periapsis: 593.167 km

RAAN: 295.7342 deg

Eccentricy: 0.0088484

Argument of periapsis: 286.527 deg

Mean anomaly: 72.6228 deg

Mean motion: 14.71777099 rev/day

Mean motion (dot): 0.00009541 rev/day2

B* drag term: 0.0014453 1/REarth

Two-line elements (TLE)

Creation date: July 6, 2025, 4:10 a.m.

Reference frame: TEME

Reference center: EARTH

Epoch: July 5, 2025, 6:36 p.m. UTC

TLE line 0: 0 CZ-6A DEB

TLE line 1: 1 54938U 22151SB 25186.77534588 .00009541 00000-0 14453-2 0 9997

TLE line 2: 2 54938 99.1274 295.7342 0088484 286.5270 72.6228 14.71777099139728

Live tracking on map

Real-time ground track for satellite CZ-6A DEB.

In-orbit conjunctions

A list of the most updated potential collisions computed for object CZ-6A DEB.

Target Orbit TCA Probability of collision Miss distance Type
SL-16 DEB LEO 2025-01-21 03:40:53 0.0001097369 271.0 (m) DEBRIS
COSMOS 1275 DEB LEO 2024-11-11 17:43:13 0.0002436773 870.0 (m) DEBRIS
MINOTAUR DEB SSO 2024-09-25 11:59:56 0.0002446121 333.0 (m) DEBRIS

Associated space launch

Chinese satellite reported for atmospheric/ocean/environmental/spatial parameter research purposes, details TBD.

CZ-6A DEB was lifted into orbit during the mission ‘Long March 6A | Yunhai 3’, on board a Long March 6A space rocket.

The launch took place on Nov. 11, 2022, 10:52 p.m. from Launch Complex 9A.

For more information about the launch, click the button.

Launch to space Long March 6A | Yunhai 3
Long March 6A | Yunhai 3

Agency: N/A

Status: Launch Successful

Launch date: Nov. 11, 2022, 10:52 p.m. UTC

Rocket: Long March 6A

Launch pad: Launch Complex 9A

Location: Taiyuan Satellite Launch Center, People's Republic of China

...

Latest news about this satellite

There are no fresh news available about this satellite. Check back as we update our databases every day.


Newsletter sign-up

Weekly statistics, charts and insights to help you stay on top of the space industry.